Data supplied by UK-AIR on 5/4/2008
All Data GMT hour ending 
Status: R =Ratified P=Provisional,P*=As supplied
,,Rochester Stoke,,,,,,,,,,,,,,,,,,,,,,,
Date,time,"PM10 particulate matter (Hourly measured)",status,unit,"Nitric oxide",status,unit,"Nitrogen dioxide",status,unit,"Nitrogen oxides as nitrogen dioxide",status,unit,"Ozone",status,unit,"Sulphur dioxide",status,unit
 
01-01-1997,01:00,35,R,ugm-3 (GRAV EQ),,,,,,,,,,66,R,ugm-3,13.3,R,ugm-3
01-01-1997,02:00,27,R,ugm-3 (GRAV EQ),,,,,,,,,,70,R,ugm-3,5.3,R,ugm-3
01-01-1997,03:00,25,R,ugm-3 (GRAV EQ),,,,,,,,,,70,R,ugm-3,5.3,R,ugm-3
01-01-1997,04:00,22,R,ugm-3 (GRAV EQ),,,,,,,,,,72,R,ugm-3,2.7,R,ugm-3
01-01-1997,05:00,25,R,ugm-3 (GRAV EQ),,,,,,,,,,72,R,ugm-3,5.3,R,ugm-3
01-01-1997,06:00,29,R,ugm-3 (GRAV EQ),,,,,,,,,,,,,,,
01-01-1997,07:00,,,,,,,,,,,,,,,,,,
01-01-1997,08:00,,,,,,,,,,,,,,,,,,
01-01-1997,09:00,,,,,,,,,,,,,,,,,,
01-01-1997,10:00,,,,,,,,,,,,,,,,,,
01-01-1997,11:00,,,,,,,,,,,,,,,,,,
01-01-1997,12:00,,,,,,,,,,,,,,,,,,
01-01-1997,13:00,,,,,,,,,,,,,,,,,,
01-01-1997,14:00,,,,,,,,,,,,,,,,,,
01-01-1997,15:00,,,,,,,,,,,,,,,,2.7,R,ugm-3
01-01-1997,16:00,,,,,,,,,,,,,,,,0.0,R,ugm-3
01-01-1997,17:00,,,,,,,,,,,,,,,,2.7,R,ugm-3
01-01-1997,18:00,,,,,,,,,,,,,,,,2.7,R,ugm-3
01-01-1997,19:00,,,,,,,,,,,,,,,,2.7,R,ugm-3
01-01-1997,20:00,,,,,,,,,,,,,,,,2.7,R,ugm-3
01-01-1997,21:00,,,,,,,,,,,,,,,,2.7,R,ugm-3
01-01-1997,22:00,,,,,,,,,,,,,,,,2.7,R,ugm-3
01-01-1997,23:00,,,,,,,,,,,,,,,,2.7,R,ugm-3
01-01-1997,24:00,,,,,,,,,,,,,,,,2.7,R,ugm-3
02-01-1997,01:00,,,,,,,,,,,,,,,,2.7,R,ugm-3
02-01-1997,02:00,,,,,,,,,,,,,,,,2.7,R,ugm-3
02-01-1997,03:00,,,,,,,,,,,,,,,,2.7,R,ugm-3
02-01-1997,04:00,,,,,,,,,,,,,,,,2.7,R,ugm-3
02-01-1997,05:00,,,,,,,,,,,,,,,,2.7,R,ugm-3
02-01-1997,06:00,,,,,,,,,,,,,,,,2.7,R,ugm-3
02-01-1997,07:00,,,,,,,,,,,,,,,,2.7,R,ugm-3
02-01-1997,08:00,,,,,,,,,,,,,,,,5.3,R,ugm-3
02-01-1997,09:00,,,,,,,,,,,,,,,,8.0,R,ugm-3
02-01-1997,10:00,,,,,,,,,,,,,,,,13.3,R,ugm-3
02-01-1997,11:00,,,,,,,,,,,,,,,,10.6,R,ugm-3
02-01-1997,12:00,,,,,,,,,,,,,,,,,,
02-01-1997,13:00,36,R,ugm-3 (GRAV EQ),,,,,,,,,,44,R,ugm-3,18.6,R,ugm-3
02-01-1997,14:00,35,R,ugm-3 (GRAV EQ),3.8,R,ugm-3,15.3,R,ugm-3,21.0,R,ugm-3,48,R,ugm-3,18.6,R,ugm-3
02-01-1997,15:00,36,R,ugm-3 (GRAV EQ),2.5,R,ugm-3,17.2,R,ugm-3,21.0,R,ugm-3,48,R,ugm-3,21.3,R,ugm-3
02-01-1997,16:00,38,R,ugm-3 (GRAV EQ),2.5,R,ugm-3,19.1,R,ugm-3,22.9,R,ugm-3,44,R,ugm-3,21.3,R,ugm-3
02-01-1997,17:00,43,R,ugm-3 (GRAV EQ),2.5,R,ugm-3,34.4,R,ugm-3,38.2,R,ugm-3,28,R,ugm-3,23.9,R,ugm-3
02-01-1997,18:00,42,R,ugm-3 (GRAV EQ),2.5,R,ugm-3,32.5,R,ugm-3,36.3,R,ugm-3,26,R,ugm-3,18.6,R,ugm-3
02-01-1997,19:00,42,R,ugm-3 (GRAV EQ),2.5,R,ugm-3,34.4,R,ugm-3,38.2,R,ugm-3,24,R,ugm-3,16.0,R,ugm-3
02-01-1997,20:00,39,R,ugm-3 (GRAV EQ),2.5,R,ugm-3,30.6,R,ugm-3,34.4,R,ugm-3,30,R,ugm-3,16.0,R,ugm-3
02-01-1997,21:00,43,R,ugm-3 (GRAV EQ),2.5,R,ugm-3,36.3,R,ugm-3,40.1,R,ugm-3,22,R,ugm-3,18.6,R,ugm-3
02-01-1997,22:00,44,R,ugm-3 (GRAV EQ),2.5,R,ugm-3,38.2,R,ugm-3,42.0,R,ugm-3,20,R,ugm-3,21.3,R,ugm-3
02-01-1997,23:00,57,R,ugm-3 (GRAV EQ),2.5,R,ugm-3,32.5,R,ugm-3,36.3,R,ugm-3,26,R,ugm-3,31.9,R,ugm-3
02-01-1997,24:00,69,R,ugm-3 (GRAV EQ),2.5,R,ugm-3,42.0,R,ugm-3,45.8,R,ugm-3,20,R,ugm-3,37.2,R,ugm-3
03-01-1997,01:00,62,R,ugm-3 (GRAV EQ),2.5,R,ugm-3,36.3,R,ugm-3,40.1,R,ugm-3,24,R,ugm-3,34.6,R,ugm-3
03-01-1997,02:00,57,R,ugm-3 (GRAV EQ),1.3,R,ugm-3,28.7,R,ugm-3,30.6,R,ugm-3,32,R,ugm-3,31.9,R,ugm-3
03-01-1997,03:00,57,R,ugm-3 (GRAV EQ),1.3,R,ugm-3,24.8,R,ugm-3,26.7,R,ugm-3,36,R,ugm-3,26.6,R,ugm-3
03-01-1997,04:00,56,R,ugm-3 (GRAV EQ),1.3,R,ugm-3,17.2,R,ugm-3,19.1,R,ugm-3,46,R,ugm-3,18.6,R,ugm-3
03-01-1997,05:00,53,R,ugm-3 (GRAV EQ),1.3,R,ugm-3,19.1,R,ugm-3,21.0,R,ugm-3,42,R,ugm-3,21.3,R,ugm-3
03-01-1997,06:00,56,R,ugm-3 (GRAV EQ),2.5,R,ugm-3,21.0,R,ugm-3,24.8,R,ugm-3,38,R,ugm-3,37.2,R,ugm-3
03-01-1997,07:00,59,R,ugm-3 (GRAV EQ),2.5,R,ugm-3,22.9,R,ugm-3,26.7,R,ugm-3,34,R,ugm-3,42.6,R,ugm-3
03-01-1997,08:00,59,R,ugm-3 (GRAV EQ),2.5,R,ugm-3,22.9,R,ugm-3,26.7,R,ugm-3,36,R,ugm-3,37.2,R,ugm-3
03-01-1997,09:00,59,R,ugm-3 (GRAV EQ),2.5,R,ugm-3,21.0,R,ugm-3,24.8,R,ugm-3,34,R,ugm-3,39.9,R,ugm-3
03-01-1997,10:00,61,R,ugm-3 (GRAV EQ),2.5,R,ugm-3,21.0,R,ugm-3,24.8,R,ugm-3,34,R,ugm-3,45.2,R,ugm-3
03-01-1997,11:00,62,R,ugm-3 (GRAV EQ),2.5,R,ugm-3,21.0,R,ugm-3,24.8,R,ugm-3,34,R,ugm-3,39.9,R,ugm-3
03-01-1997,12:00,65,R,ugm-3 (GRAV EQ),3.8,R,ugm-3,22.9,R,ugm-3,28.7,R,ugm-3,34,R,ugm-3,37.2,R,ugm-3
03-01-1997,13:00,65,R,ugm-3 (GRAV EQ),3.8,R,ugm-3,22.9,R,ugm-3,28.7,R,ugm-3,34,R,ugm-3,37.2,R,ugm-3
03-01-1997,14:00,65,R,ugm-3 (GRAV EQ),2.5,R,ugm-3,26.7,R,ugm-3,30.6,R,ugm-3,32,R,ugm-3,31.9,R,ugm-3
03-01-1997,15:00,64,R,ugm-3 (GRAV EQ),2.5,R,ugm-3,28.7,R,ugm-3,32.5,R,ugm-3,30,R,ugm-3,34.6,R,ugm-3
03-01-1997,16:00,62,R,ugm-3 (GRAV EQ),2.5,R,ugm-3,32.5,R,ugm-3,36.3,R,ugm-3,28,R,ugm-3,34.6,R,ugm-3
03-01-1997,17:00,61,R,ugm-3 (GRAV EQ),2.5,R,ugm-3,32.5,R,ugm-3,36.3,R,ugm-3,28,R,ugm-3,29.3,R,ugm-3
03-01-1997,18:00,56,R,ugm-3 (GRAV EQ),2.5,R,ugm-3,28.7,R,ugm-3,32.5,R,ugm-3,30,R,ugm-3,29.3,R,ugm-3
03-01-1997,19:00,56,R,ugm-3 (GRAV EQ),2.5,R,ugm-3,28.7,R,ugm-3,32.5,R,ugm-3,32,R,ugm-3,29.3,R,ugm-3
03-01-1997,20:00,48,R,ugm-3 (GRAV EQ),2.5,R,ugm-3,21.0,R,ugm-3,24.8,R,ugm-3,40,R,ugm-3,26.6,R,ugm-3
03-01-1997,21:00,44,R,ugm-3 (GRAV EQ),1.3,R,ugm-3,19.1,R,ugm-3,21.0,R,ugm-3,40,R,ugm-3,26.6,R,ugm-3
03-01-1997,22:00,48,R,ugm-3 (GRAV EQ),2.5,R,ugm-3,19.1,R,ugm-3,22.9,R,ugm-3,38,R,ugm-3,26.6,R,ugm-3
03-01-1997,23:00,46,R,ugm-3 (GRAV EQ),2.5,R,ugm-3,19.1,R,ugm-3,22.9,R,ugm-3,36,R,ugm-3,26.6,R,ugm-3
03-01-1997,24:00,46,R,ugm-3 (GRAV EQ),1.3,R,ugm-3,15.3,R,ugm-3,17.2,R,ugm-3,38,R,ugm-3,29.3,R,ugm-3
04-01-1997,01:00,48,R,ugm-3 (GRAV EQ),1.3,R,ugm-3,15.3,R,ugm-3,17.2,R,ugm-3,38,R,ugm-3,29.3,R,ugm-3
04-01-1997,02:00,52,R,ugm-3 (GRAV EQ),1.3,R,ugm-3,21.0,R,ugm-3,22.9,R,ugm-3,32,R,ugm-3,29.3,R,ugm-3
04-01-1997,03:00,53,R,ugm-3 (GRAV EQ),1.3,R,ugm-3,19.1,R,ugm-3,21.0,R,ugm-3,32,R,ugm-3,29.3,R,ugm-3
04-01-1997,04:00,47,R,ugm-3 (GRAV EQ),1.3,R,ugm-3,13.4,R,ugm-3,15.3,R,ugm-3,40,R,ugm-3,26.6,R,ugm-3
04-01-1997,05:00,44,R,ugm-3 (GRAV EQ),2.5,R,ugm-3,9.6,R,ugm-3,13.4,R,ugm-3,42,R,ugm-3,26.6,R,ugm-3
04-01-1997,06:00,44,R,ugm-3 (GRAV EQ),1.3,R,ugm-3,9.6,R,ugm-3,11.5,R,ugm-3,42,R,ugm-3,23.9,R,ugm-3
04-01-1997,07:00,42,R,ugm-3 (GRAV EQ),1.3,R,ugm-3,11.5,R,ugm-3,13.4,R,ugm-3,42,R,ugm-3,26.6,R,ugm-3
04-01-1997,08:00,42,R,ugm-3 (GRAV EQ),2.5,R,ugm-3,9.6,R,ugm-3,13.4,R,ugm-3,44,R,ugm-3,26.6,R,ugm-3
04-01-1997,09:00,38,R,ugm-3 (GRAV EQ),2.5,R,ugm-3,7.6,R,ugm-3,11.5,R,ugm-3,46,R,ugm-3,18.6,R,ugm-3
04-01-1997,10:00,35,R,ugm-3 (GRAV EQ),2.5,R,ugm-3,7.6,R,ugm-3,11.5,R,ugm-3,46,R,ugm-3,21.3,R,ugm-3
04-01-1997,11:00,38,R,ugm-3 (GRAV EQ),2.5,R,ugm-3,7.6,R,ugm-3,11.5,R,ugm-3,46,R,ugm-3,16.0,R,ugm-3
04-01-1997,12:00,33,R,ugm-3 (GRAV EQ),2.5,R,ugm-3,7.6,R,ugm-3,11.5,R,ugm-3,46,R,ugm-3,10.6,R,ugm-3
04-01-1997,13:00,31,R,ugm-3 (GRAV EQ),2.5,R,ugm-3,11.5,R,ugm-3,15.3,R,ugm-3,48,R,ugm-3,10.6,R,ugm-3
04-01-1997,14:00,27,R,ugm-3 (GRAV EQ),2.5,R,ugm-3,7.6,R,ugm-3,11.5,R,ugm-3,56,R,ugm-3,8.0,R,ugm-3
04-01-1997,15:00,25,R,ugm-3 (GRAV EQ),2.5,R,ugm-3,7.6,R,ugm-3,11.5,R,ugm-3,60,R,ugm-3,5.3,R,ugm-3
04-01-1997,16:00,17,R,ugm-3 (GRAV EQ),2.5,R,ugm-3,7.6,R,ugm-3,11.5,R,ugm-3,62,R,ugm-3,2.7,R,ugm-3
04-01-1997,17:00,20,R,ugm-3 (GRAV EQ),2.5,R,ugm-3,5.7,R,ugm-3,9.6,R,ugm-3,64,R,ugm-3,2.7,R,ugm-3
04-01-1997,18:00,25,R,ugm-3 (GRAV EQ),1.3,R,ugm-3,7.6,R,ugm-3,9.6,R,ugm-3,62,R,ugm-3,2.7,R,ugm-3
04-01-1997,19:00,23,R,ugm-3 (GRAV EQ),1.3,R,ugm-3,7.6,R,ugm-3,9.6,R,ugm-3,66,R,ugm-3,0.0,R,ugm-3
04-01-1997,20:00,20,R,ugm-3 (GRAV EQ),2.5,R,ugm-3,7.6,R,ugm-3,11.5,R,ugm-3,62,R,ugm-3,2.7,R,ugm-3
04-01-1997,21:00,21,R,ugm-3 (GRAV EQ),1.3,R,ugm-3,5.7,R,ugm-3,7.6,R,ugm-3,60,R,ugm-3,0.0,R,ugm-3
04-01-1997,22:00,18,R,ugm-3 (GRAV EQ),1.3,R,ugm-3,7.6,R,ugm-3,9.6,R,ugm-3,56,R,ugm-3,2.7,R,ugm-3
04-01-1997,23:00,17,R,ugm-3 (GRAV EQ),1.3,R,ugm-3,5.7,R,ugm-3,7.6,R,ugm-3,60,R,ugm-3,0.0,R,ugm-3
04-01-1997,24:00,17,R,ugm-3 (GRAV EQ),1.3,R,ugm-3,5.7,R,ugm-3,7.6,R,ugm-3,60,R,ugm-3,2.7,R,ugm-3
05-01-1997,01:00,18,R,ugm-3 (GRAV EQ),1.3,R,ugm-3,3.8,R,ugm-3,5.7,R,ugm-3,66,R,ugm-3,2.7,R,ugm-3
05-01-1997,02:00,16,R,ugm-3 (GRAV EQ),1.3,R,ugm-3,3.8,R,ugm-3,5.7,R,ugm-3,68,R,ugm-3,0.0,R,ugm-3
05-01-1997,03:00,16,R,ugm-3 (GRAV EQ),1.3,R,ugm-3,3.8,R,ugm-3,5.7,R,ugm-3,68,R,ugm-3,0.0,R,ugm-3
05-01-1997,04:00,16,R,ugm-3 (GRAV EQ),1.3,R,ugm-3,3.8,R,ugm-3,5.7,R,ugm-3,68,R,ugm-3,0.0,R,ugm-3
05-01-1997,05:00,17,R,ugm-3 (GRAV EQ),1.3,R,ugm-3,1.9,R,ugm-3,3.8,R,ugm-3,68,R,ugm-3,0.0,R,ugm-3
05-01-1997,06:00,16,R,ugm-3 (GRAV EQ),1.3,R,ugm-3,5.7,R,ugm-3,7.6,R,ugm-3,66,R,ugm-3,0.0,R,ugm-3
05-01-1997,07:00,17,R,ugm-3 (GRAV EQ),1.3,R,ugm-3,7.6,R,ugm-3,9.6,R,ugm-3,62,R,ugm-3,0.0,R,ugm-3
05-01-1997,08:00,16,R,ugm-3 (GRAV EQ),1.3,R,ugm-3,3.8,R,ugm-3,5.7,R,ugm-3,68,R,ugm-3,0.0,R,ugm-3
05-01-1997,09:00,22,R,ugm-3 (GRAV EQ),1.3,R,ugm-3,5.7,R,ugm-3,7.6,R,ugm-3,62,R,ugm-3,0.0,R,ugm-3
05-01-1997,10:00,20,R,ugm-3 (GRAV EQ),1.3,R,ugm-3,3.8,R,ugm-3,5.7,R,ugm-3,62,R,ugm-3,0.0,R,ugm-3
05-01-1997,11:00,21,R,ugm-3 (GRAV EQ),2.5,R,ugm-3,3.8,R,ugm-3,7.6,R,ugm-3,62,R,ugm-3,2.7,R,ugm-3
05-01-1997,12:00,18,R,ugm-3 (GRAV EQ),2.5,R,ugm-3,3.8,R,ugm-3,7.6,R,ugm-3,64,R,ugm-3,2.7,R,ugm-3
05-01-1997,13:00,17,R,ugm-3 (GRAV EQ),2.5,R,ugm-3,3.8,R,ugm-3,7.6,R,ugm-3,62,R,ugm-3,2.7,R,ugm-3
05-01-1997,14:00,16,R,ugm-3 (GRAV EQ),2.5,R,ugm-3,3.8,R,ugm-3,7.6,R,ugm-3,68,R,ugm-3,5.3,R,ugm-3
05-01-1997,15:00,14,R,ugm-3 (GRAV EQ),1.3,R,ugm-3,1.9,R,ugm-3,3.8,R,ugm-3,68,R,ugm-3,2.7,R,ugm-3
05-01-1997,16:00,14,R,ugm-3 (GRAV EQ),1.3,R,ugm-3,7.6,R,ugm-3,9.6,R,ugm-3,64,R,ugm-3,2.7,R,ugm-3
05-01-1997,17:00,13,R,ugm-3 (GRAV EQ),1.3,R,ugm-3,5.7,R,ugm-3,7.6,R,ugm-3,66,R,ugm-3,2.7,R,ugm-3
05-01-1997,18:00,14,R,ugm-3 (GRAV EQ),1.3,R,ugm-3,3.8,R,ugm-3,5.7,R,ugm-3,70,R,ugm-3,2.7,R,ugm-3
05-01-1997,19:00,13,R,ugm-3 (GRAV EQ),2.5,R,ugm-3,3.8,R,ugm-3,7.6,R,ugm-3,72,R,ugm-3,2.7,R,ugm-3
05-01-1997,20:00,13,R,ugm-3 (GRAV EQ),1.3,R,ugm-3,3.8,R,ugm-3,5.7,R,ugm-3,66,R,ugm-3,5.3,R,ugm-3
05-01-1997,21:00,16,R,ugm-3 (GRAV EQ),1.3,R,ugm-3,7.6,R,ugm-3,9.6,R,ugm-3,58,R,ugm-3,8.0,R,ugm-3
05-01-1997,22:00,17,R,ugm-3 (GRAV EQ),2.5,R,ugm-3,9.6,R,ugm-3,13.4,R,ugm-3,52,R,ugm-3,13.3,R,ugm-3
05-01-1997,23:00,18,R,ugm-3 (GRAV EQ),2.5,R,ugm-3,13.4,R,ugm-3,17.2,R,ugm-3,48,R,ugm-3,18.6,R,ugm-3
05-01-1997,24:00,36,R,ugm-3 (GRAV EQ),1.3,R,ugm-3,19.1,R,ugm-3,21.0,R,ugm-3,28,R,ugm-3,23.9,R,ugm-3
06-01-1997,01:00,46,R,ugm-3 (GRAV EQ),1.3,R,ugm-3,32.5,R,ugm-3,34.4,R,ugm-3,10,R,ugm-3,31.9,R,ugm-3
06-01-1997,02:00,27,R,ugm-3 (GRAV EQ),1.3,R,ugm-3,15.3,R,ugm-3,17.2,R,ugm-3,42,R,ugm-3,18.6,R,ugm-3
06-01-1997,03:00,22,R,ugm-3 (GRAV EQ),0.0,R,ugm-3,15.3,R,ugm-3,15.3,R,ugm-3,42,R,ugm-3,18.6,R,ugm-3
06-01-1997,04:00,22,R,ugm-3 (GRAV EQ),0.0,R,ugm-3,15.3,R,ugm-3,15.3,R,ugm-3,44,R,ugm-3,16.0,R,ugm-3
06-01-1997,05:00,22,R,ugm-3 (GRAV EQ),1.3,R,ugm-3,15.3,R,ugm-3,17.2,R,ugm-3,42,R,ugm-3,16.0,R,ugm-3
06-01-1997,06:00,20,R,ugm-3 (GRAV EQ),0.0,R,ugm-3,17.2,R,ugm-3,17.2,R,ugm-3,40,R,ugm-3,16.0,R,ugm-3
06-01-1997,07:00,31,R,ugm-3 (GRAV EQ),2.5,R,ugm-3,30.6,R,ugm-3,34.4,R,ugm-3,28,R,ugm-3,29.3,R,ugm-3
06-01-1997,08:00,27,R,ugm-3 (GRAV EQ),3.8,R,ugm-3,38.2,R,ugm-3,43.9,R,ugm-3,18,R,ugm-3,26.6,R,ugm-3
06-01-1997,09:00,27,R,ugm-3 (GRAV EQ),5.0,R,ugm-3,38.2,R,ugm-3,45.8,R,ugm-3,18,R,ugm-3,26.6,R,ugm-3
06-01-1997,10:00,30,R,ugm-3 (GRAV EQ),5.0,R,ugm-3,30.6,R,ugm-3,38.2,R,ugm-3,24,R,ugm-3,23.9,R,ugm-3
06-01-1997,11:00,34,R,ugm-3 (GRAV EQ),7.5,R,ugm-3,32.5,R,ugm-3,43.9,R,ugm-3,24,R,ugm-3,34.6,R,ugm-3
06-01-1997,12:00,39,R,ugm-3 (GRAV EQ),8.8,R,ugm-3,34.4,R,ugm-3,47.8,R,ugm-3,22,R,ugm-3,37.2,R,ugm-3
06-01-1997,13:00,,,,,,,,,,,,,,,,,,
06-01-1997,14:00,,,,,,,,,,,,,,,,,,
06-01-1997,15:00,,,,,,,,,,,,,,,,,,
06-01-1997,16:00,,,,,,,,,,,,,,,,,,
06-01-1997,17:00,,,,,,,,,,,,,,,,,,
06-01-1997,18:00,,,,,,,,,,,,,,,,,,
06-01-1997,19:00,,,,,,,,,,,,,,,,,,
06-01-1997,20:00,,,,,,,,,,,,,,,,,,
06-01-1997,21:00,,,,,,,,,,,,,,,,,,
06-01-1997,22:00,,,,,,,,,,,,,,,,,,
06-01-1997,23:00,,,,,,,,,,,,,,,,,,
06-01-1997,24:00,,,,,,,,,,,,,,,,,,
07-01-1997,01:00,,,,,,,,,,,,,,,,,,
07-01-1997,02:00,,,,,,,,,,,,,,,,,,
07-01-1997,03:00,,,,,,,,,,,,,,,,,,
07-01-1997,04:00,,,,,,,,,,,,,,,,,,
07-01-1997,05:00,,,,,,,,,,,,,,,,,,
07-01-1997,06:00,,,,,,,,,,,,,,,,,,
07-01-1997,07:00,,,,,,,,,,,,,,,,,,
07-01-1997,08:00,,,,,,,,,,,,,,,,,,
07-01-1997,09:00,,,,,,,,,,,,,,,,,,
07-01-1997,10:00,,,,,,,,,,,,,,,,,,
07-01-1997,11:00,,,,,,,,,,,,,,,,,,
07-01-1997,12:00,,,,,,,,,,,,,,,,,,
07-01-1997,13:00,,,,,,,,,,,,,,,,,,
07-01-1997,14:00,,,,,,,,,,,,,,,,,,
07-01-1997,15:00,,,,7.5,R,ugm-3,28.7,R,ugm-3,40.1,R,ugm-3,22,R,ugm-3,29.3,R,ugm-3
07-01-1997,16:00,,,,11.3,R,ugm-3,43.9,R,ugm-3,61.1,R,ugm-3,8,R,ugm-3,37.2,R,ugm-3
07-01-1997,17:00,8,R,ugm-3 (GRAV EQ),1.3,R,ugm-3,22.9,R,ugm-3,24.8,R,ugm-3,30,R,ugm-3,37.2,R,ugm-3
07-01-1997,18:00,17,R,ugm-3 (GRAV EQ),3.8,R,ugm-3,30.6,R,ugm-3,36.3,R,ugm-3,20,R,ugm-3,34.6,R,ugm-3
07-01-1997,19:00,16,R,ugm-3 (GRAV EQ),2.5,R,ugm-3,22.9,R,ugm-3,26.7,R,ugm-3,28,R,ugm-3,31.9,R,ugm-3
07-01-1997,20:00,25,R,ugm-3 (GRAV EQ),2.5,R,ugm-3,30.6,R,ugm-3,34.4,R,ugm-3,24,R,ugm-3,37.2,R,ugm-3
07-01-1997,21:00,29,R,ugm-3 (GRAV EQ),2.5,R,ugm-3,28.7,R,ugm-3,32.5,R,ugm-3,28,R,ugm-3,37.2,R,ugm-3
07-01-1997,22:00,31,R,ugm-3 (GRAV EQ),1.3,R,ugm-3,32.5,R,ugm-3,34.4,R,ugm-3,22,R,ugm-3,37.2,R,ugm-3
07-01-1997,23:00,56,R,ugm-3 (GRAV EQ),2.5,R,ugm-3,34.4,R,ugm-3,38.2,R,ugm-3,16,R,ugm-3,34.6,R,ugm-3
07-01-1997,24:00,42,R,ugm-3 (GRAV EQ),1.3,R,ugm-3,32.5,R,ugm-3,34.4,R,ugm-3,20,R,ugm-3,31.9,R,ugm-3
08-01-1997,01:00,35,R,ugm-3 (GRAV EQ),1.3,R,ugm-3,28.7,R,ugm-3,30.6,R,ugm-3,24,R,ugm-3,34.6,R,ugm-3
08-01-1997,02:00,39,R,ugm-3 (GRAV EQ),1.3,R,ugm-3,32.5,R,ugm-3,34.4,R,ugm-3,22,R,ugm-3,29.3,R,ugm-3
08-01-1997,03:00,34,R,ugm-3 (GRAV EQ),1.3,R,ugm-3,26.7,R,ugm-3,28.7,R,ugm-3,26,R,ugm-3,23.9,R,ugm-3
08-01-1997,04:00,26,R,ugm-3 (GRAV EQ),1.3,R,ugm-3,19.1,R,ugm-3,21.0,R,ugm-3,38,R,ugm-3,18.6,R,ugm-3
08-01-1997,05:00,34,R,ugm-3 (GRAV EQ),1.3,R,ugm-3,22.9,R,ugm-3,24.8,R,ugm-3,32,R,ugm-3,16.0,R,ugm-3
08-01-1997,06:00,31,R,ugm-3 (GRAV EQ),1.3,R,ugm-3,28.7,R,ugm-3,30.6,R,ugm-3,24,R,ugm-3,18.6,R,ugm-3
08-01-1997,07:00,26,R,ugm-3 (GRAV EQ),1.3,R,ugm-3,24.8,R,ugm-3,26.7,R,ugm-3,34,R,ugm-3,13.3,R,ugm-3
08-01-1997,08:00,17,R,ugm-3 (GRAV EQ),1.3,R,ugm-3,17.2,R,ugm-3,19.1,R,ugm-3,44,R,ugm-3,8.0,R,ugm-3
08-01-1997,09:00,17,R,ugm-3 (GRAV EQ),1.3,R,ugm-3,26.7,R,ugm-3,28.7,R,ugm-3,34,R,ugm-3,13.3,R,ugm-3
08-01-1997,10:00,18,R,ugm-3 (GRAV EQ),1.3,R,ugm-3,32.5,R,ugm-3,34.4,R,ugm-3,30,R,ugm-3,18.6,R,ugm-3
08-01-1997,11:00,25,R,ugm-3 (GRAV EQ),2.5,R,ugm-3,28.7,R,ugm-3,32.5,R,ugm-3,32,R,ugm-3,18.6,R,ugm-3
08-01-1997,12:00,35,R,ugm-3 (GRAV EQ),3.8,R,ugm-3,36.3,R,ugm-3,42.0,R,ugm-3,22,R,ugm-3,29.3,R,ugm-3
08-01-1997,13:00,40,R,ugm-3 (GRAV EQ),5.0,R,ugm-3,43.9,R,ugm-3,51.6,R,ugm-3,18,R,ugm-3,29.3,R,ugm-3
08-01-1997,14:00,44,R,ugm-3 (GRAV EQ),3.8,R,ugm-3,42.0,R,ugm-3,47.8,R,ugm-3,18,R,ugm-3,23.9,R,ugm-3
08-01-1997,15:00,47,R,ugm-3 (GRAV EQ),3.8,R,ugm-3,42.0,R,ugm-3,47.8,R,ugm-3,18,R,ugm-3,26.6,R,ugm-3
08-01-1997,16:00,42,R,ugm-3 (GRAV EQ),1.3,R,ugm-3,40.1,R,ugm-3,42.0,R,ugm-3,26,R,ugm-3,26.6,R,ugm-3
08-01-1997,17:00,46,R,ugm-3 (GRAV EQ),1.3,R,ugm-3,45.8,R,ugm-3,47.8,R,ugm-3,16,R,ugm-3,31.9,R,ugm-3
08-01-1997,18:00,,,,,,,,,,,,,,,,,,
08-01-1997,19:00,60,R,ugm-3 (GRAV EQ),15.0,R,ugm-3,66.9,R,ugm-3,89.8,R,ugm-3,2,R,ugm-3,47.9,R,ugm-3
08-01-1997,20:00,60,R,ugm-3 (GRAV EQ),16.3,R,ugm-3,64.9,R,ugm-3,89.8,R,ugm-3,2,R,ugm-3,45.2,R,ugm-3
08-01-1997,21:00,62,R,ugm-3 (GRAV EQ),12.5,R,ugm-3,61.1,R,ugm-3,80.2,R,ugm-3,2,R,ugm-3,39.9,R,ugm-3
08-01-1997,22:00,79,R,ugm-3 (GRAV EQ),25.0,R,ugm-3,63.0,R,ugm-3,101.2,R,ugm-3,2,R,ugm-3,37.2,R,ugm-3
08-01-1997,23:00,59,R,ugm-3 (GRAV EQ),17.5,R,ugm-3,63.0,R,ugm-3,89.8,R,ugm-3,2,R,ugm-3,34.6,R,ugm-3
08-01-1997,24:00,46,R,ugm-3 (GRAV EQ),12.5,R,ugm-3,57.3,R,ugm-3,76.4,R,ugm-3,2,R,ugm-3,29.3,R,ugm-3
09-01-1997,01:00,43,R,ugm-3 (GRAV EQ),6.3,R,ugm-3,55.4,R,ugm-3,64.9,R,ugm-3,2,R,ugm-3,23.9,R,ugm-3
09-01-1997,02:00,53,R,ugm-3 (GRAV EQ),13.8,R,ugm-3,59.2,R,ugm-3,80.2,R,ugm-3,2,R,ugm-3,21.3,R,ugm-3
09-01-1997,03:00,66,R,ugm-3 (GRAV EQ),16.3,R,ugm-3,59.2,R,ugm-3,84.0,R,ugm-3,2,R,ugm-3,16.0,R,ugm-3
09-01-1997,04:00,59,R,ugm-3 (GRAV EQ),16.3,R,ugm-3,59.2,R,ugm-3,84.0,R,ugm-3,0,R,ugm-3,16.0,R,ugm-3
09-01-1997,05:00,55,R,ugm-3 (GRAV EQ),15.0,R,ugm-3,55.4,R,ugm-3,78.3,R,ugm-3,0,R,ugm-3,16.0,R,ugm-3
09-01-1997,06:00,57,R,ugm-3 (GRAV EQ),27.5,R,ugm-3,61.1,R,ugm-3,103.1,R,ugm-3,0,R,ugm-3,18.6,R,ugm-3
09-01-1997,07:00,55,R,ugm-3 (GRAV EQ),36.3,R,ugm-3,63.0,R,ugm-3,118.4,R,ugm-3,0,R,ugm-3,18.6,R,ugm-3
09-01-1997,08:00,52,R,ugm-3 (GRAV EQ),32.5,R,ugm-3,61.1,R,ugm-3,110.8,R,ugm-3,0,R,ugm-3,16.0,R,ugm-3
09-01-1997,09:00,51,R,ugm-3 (GRAV EQ),32.5,R,ugm-3,57.3,R,ugm-3,107.0,R,ugm-3,2,R,ugm-3,13.3,R,ugm-3
09-01-1997,10:00,44,R,ugm-3 (GRAV EQ),37.5,R,ugm-3,53.5,R,ugm-3,110.8,R,ugm-3,4,R,ugm-3,13.3,R,ugm-3
09-01-1997,11:00,51,R,ugm-3 (GRAV EQ),47.5,R,ugm-3,53.5,R,ugm-3,126.1,R,ugm-3,6,R,ugm-3,13.3,R,ugm-3
09-01-1997,12:00,,,,43.8,R,ugm-3,51.6,R,ugm-3,118.4,R,ugm-3,8,R,ugm-3,16.0,R,ugm-3
09-01-1997,13:00,53,R,ugm-3 (GRAV EQ),30.0,R,ugm-3,49.7,R,ugm-3,95.5,R,ugm-3,12,R,ugm-3,18.6,R,ugm-3
09-01-1997,14:00,55,R,ugm-3 (GRAV EQ),13.8,R,ugm-3,40.1,R,ugm-3,61.1,R,ugm-3,18,R,ugm-3,16.0,R,ugm-3
09-01-1997,15:00,47,R,ugm-3 (GRAV EQ),7.5,R,ugm-3,32.5,R,ugm-3,43.9,R,ugm-3,24,R,ugm-3,16.0,R,ugm-3
09-01-1997,16:00,34,R,ugm-3 (GRAV EQ),2.5,R,ugm-3,26.7,R,ugm-3,30.6,R,ugm-3,34,R,ugm-3,8.0,R,ugm-3
09-01-1997,17:00,33,R,ugm-3 (GRAV EQ),1.3,R,ugm-3,26.7,R,ugm-3,28.7,R,ugm-3,34,R,ugm-3,8.0,R,ugm-3
09-01-1997,18:00,29,R,ugm-3 (GRAV EQ),1.3,R,ugm-3,22.9,R,ugm-3,24.8,R,ugm-3,38,R,ugm-3,5.3,R,ugm-3
09-01-1997,19:00,29,R,ugm-3 (GRAV EQ),1.3,R,ugm-3,22.9,R,ugm-3,24.8,R,ugm-3,42,R,ugm-3,2.7,R,ugm-3
09-01-1997,20:00,26,R,ugm-3 (GRAV EQ),1.3,R,ugm-3,22.9,R,ugm-3,24.8,R,ugm-3,46,R,ugm-3,2.7,R,ugm-3
09-01-1997,21:00,26,R,ugm-3 (GRAV EQ),1.3,R,ugm-3,19.1,R,ugm-3,21.0,R,ugm-3,48,R,ugm-3,2.7,R,ugm-3
09-01-1997,22:00,29,R,ugm-3 (GRAV EQ),0.0,R,ugm-3,17.2,R,ugm-3,17.2,R,ugm-3,50,R,ugm-3,0.0,R,ugm-3
09-01-1997,23:00,25,R,ugm-3 (GRAV EQ),0.0,R,ugm-3,15.3,R,ugm-3,15.3,R,ugm-3,50,R,ugm-3,2.7,R,ugm-3
09-01-1997,24:00,27,R,ugm-3 (GRAV EQ),0.0,R,ugm-3,17.2,R,ugm-3,17.2,R,ugm-3,46,R,ugm-3,2.7,R,ugm-3
10-01-1997,01:00,18,R,ugm-3 (GRAV EQ),0.0,R,ugm-3,11.5,R,ugm-3,11.5,R,ugm-3,56,R,ugm-3,0.0,R,ugm-3
10-01-1997,02:00,21,R,ugm-3 (GRAV EQ),0.0,R,ugm-3,13.4,R,ugm-3,13.4,R,ugm-3,54,R,ugm-3,0.0,R,ugm-3
10-01-1997,03:00,26,R,ugm-3 (GRAV EQ),0.0,R,ugm-3,9.6,R,ugm-3,9.6,R,ugm-3,54,R,ugm-3,0.0,R,ugm-3
10-01-1997,04:00,25,R,ugm-3 (GRAV EQ),1.3,R,ugm-3,9.6,R,ugm-3,11.5,R,ugm-3,52,R,ugm-3,0.0,R,ugm-3
10-01-1997,05:00,26,R,ugm-3 (GRAV EQ),0.0,R,ugm-3,11.5,R,ugm-3,11.5,R,ugm-3,50,R,ugm-3,0.0,R,ugm-3
10-01-1997,06:00,30,R,ugm-3 (GRAV EQ),0.0,R,ugm-3,11.5,R,ugm-3,11.5,R,ugm-3,48,R,ugm-3,0.0,R,ugm-3
10-01-1997,07:00,33,R,ugm-3 (GRAV EQ),1.3,R,ugm-3,13.4,R,ugm-3,15.3,R,ugm-3,44,R,ugm-3,2.7,R,ugm-3
10-01-1997,08:00,35,R,ugm-3 (GRAV EQ),1.3,R,ugm-3,15.3,R,ugm-3,17.2,R,ugm-3,38,R,ugm-3,5.3,R,ugm-3
10-01-1997,09:00,43,R,ugm-3 (GRAV EQ),2.5,R,ugm-3,19.1,R,ugm-3,22.9,R,ugm-3,32,R,ugm-3,8.0,R,ugm-3
10-01-1997,10:00,51,R,ugm-3 (GRAV EQ),3.8,R,ugm-3,26.7,R,ugm-3,32.5,R,ugm-3,24,R,ugm-3,13.3,R,ugm-3
10-01-1997,11:00,55,R,ugm-3 (GRAV EQ),5.0,R,ugm-3,24.8,R,ugm-3,32.5,R,ugm-3,26,R,ugm-3,13.3,R,ugm-3
10-01-1997,12:00,56,R,ugm-3 (GRAV EQ),8.8,R,ugm-3,26.7,R,ugm-3,40.1,R,ugm-3,26,R,ugm-3,16.0,R,ugm-3
10-01-1997,13:00,59,R,ugm-3 (GRAV EQ),10.0,R,ugm-3,30.6,R,ugm-3,45.8,R,ugm-3,24,R,ugm-3,18.6,R,ugm-3
10-01-1997,14:00,57,R,ugm-3 (GRAV EQ),8.8,R,ugm-3,32.5,R,ugm-3,45.8,R,ugm-3,24,R,ugm-3,18.6,R,ugm-3
10-01-1997,15:00,62,R,ugm-3 (GRAV EQ),11.3,R,ugm-3,40.1,R,ugm-3,57.3,R,ugm-3,16,R,ugm-3,18.6,R,ugm-3
10-01-1997,16:00,66,R,ugm-3 (GRAV EQ),7.5,R,ugm-3,43.9,R,ugm-3,55.4,R,ugm-3,12,R,ugm-3,21.3,R,ugm-3
10-01-1997,17:00,68,R,ugm-3 (GRAV EQ),15.0,R,ugm-3,49.7,R,ugm-3,72.6,R,ugm-3,4,R,ugm-3,18.6,R,ugm-3
10-01-1997,18:00,87,R,ugm-3 (GRAV EQ),53.8,R,ugm-3,57.3,R,ugm-3,139.4,R,ugm-3,2,R,ugm-3,26.6,R,ugm-3
10-01-1997,19:00,117,R,ugm-3 (GRAV EQ),75.0,R,ugm-3,64.9,R,ugm-3,179.5,R,ugm-3,4,R,ugm-3,34.6,R,ugm-3
10-01-1997,20:00,116,R,ugm-3 (GRAV EQ),67.5,R,ugm-3,63.0,R,ugm-3,166.2,R,ugm-3,2,R,ugm-3,29.3,R,ugm-3
10-01-1997,21:00,114,R,ugm-3 (GRAV EQ),61.3,R,ugm-3,59.2,R,ugm-3,152.8,R,ugm-3,2,R,ugm-3,26.6,R,ugm-3
10-01-1997,22:00,116,R,ugm-3 (GRAV EQ),67.5,R,ugm-3,63.0,R,ugm-3,166.2,R,ugm-3,2,R,ugm-3,37.2,R,ugm-3
10-01-1997,23:00,105,R,ugm-3 (GRAV EQ),35.0,R,ugm-3,59.2,R,ugm-3,112.7,R,ugm-3,4,R,ugm-3,29.3,R,ugm-3
10-01-1997,24:00,108,R,ugm-3 (GRAV EQ),30.0,R,ugm-3,59.2,R,ugm-3,105.1,R,ugm-3,2,R,ugm-3,31.9,R,ugm-3
11-01-1997,01:00,131,R,ugm-3 (GRAV EQ),,,,,,,,,,,,,,,
11-01-1997,02:00,160,R,ugm-3 (GRAV EQ),27.5,R,ugm-3,63.0,R,ugm-3,105.1,R,ugm-3,2,R,ugm-3,39.9,R,ugm-3
11-01-1997,03:00,176,R,ugm-3 (GRAV EQ),30.0,R,ugm-3,63.0,R,ugm-3,108.9,R,ugm-3,2,R,ugm-3,45.2,R,ugm-3
11-01-1997,04:00,179,R,ugm-3 (GRAV EQ),33.8,R,ugm-3,63.0,R,ugm-3,114.6,R,ugm-3,2,R,ugm-3,45.2,R,ugm-3
11-01-1997,05:00,172,R,ugm-3 (GRAV EQ),46.3,R,ugm-3,63.0,R,ugm-3,133.7,R,ugm-3,2,R,ugm-3,53.2,R,ugm-3
11-01-1997,06:00,,,,,,,,,,,,,,,,,,
11-01-1997,07:00,127,R,ugm-3 (GRAV EQ),42.5,R,ugm-3,61.1,R,ugm-3,126.1,R,ugm-3,0,R,ugm-3,34.6,R,ugm-3
11-01-1997,08:00,120,R,ugm-3 (GRAV EQ),45.0,R,ugm-3,61.1,R,ugm-3,129.9,R,ugm-3,2,R,ugm-3,29.3,R,ugm-3
11-01-1997,09:00,95,R,ugm-3 (GRAV EQ),46.3,R,ugm-3,61.1,R,ugm-3,131.8,R,ugm-3,4,R,ugm-3,23.9,R,ugm-3
11-01-1997,10:00,79,R,ugm-3 (GRAV EQ),48.8,R,ugm-3,61.1,R,ugm-3,135.6,R,ugm-3,6,R,ugm-3,26.6,R,ugm-3
11-01-1997,11:00,92,R,ugm-3 (GRAV EQ),55.0,R,ugm-3,61.1,R,ugm-3,145.2,R,ugm-3,10,R,ugm-3,26.6,R,ugm-3
11-01-1997,12:00,107,R,ugm-3 (GRAV EQ),61.3,R,ugm-3,63.0,R,ugm-3,156.6,R,ugm-3,10,R,ugm-3,26.6,R,ugm-3
11-01-1997,13:00,129,R,ugm-3 (GRAV EQ),68.8,R,ugm-3,70.7,R,ugm-3,175.7,R,ugm-3,10,R,ugm-3,26.6,R,ugm-3
11-01-1997,14:00,151,R,ugm-3 (GRAV EQ),67.5,R,ugm-3,74.5,R,ugm-3,177.6,R,ugm-3,10,R,ugm-3,26.6,R,ugm-3
11-01-1997,15:00,159,R,ugm-3 (GRAV EQ),70.0,R,ugm-3,76.4,R,ugm-3,183.4,R,ugm-3,6,R,ugm-3,31.9,R,ugm-3
11-01-1997,16:00,143,R,ugm-3 (GRAV EQ),70.0,R,ugm-3,78.3,R,ugm-3,185.3,R,ugm-3,4,R,ugm-3,29.3,R,ugm-3
11-01-1997,17:00,159,R,ugm-3 (GRAV EQ),75.0,R,ugm-3,74.5,R,ugm-3,189.1,R,ugm-3,4,R,ugm-3,23.9,R,ugm-3
11-01-1997,18:00,116,R,ugm-3 (GRAV EQ),56.3,R,ugm-3,68.8,R,ugm-3,154.7,R,ugm-3,2,R,ugm-3,23.9,R,ugm-3
11-01-1997,19:00,73,R,ugm-3 (GRAV EQ),47.5,R,ugm-3,64.9,R,ugm-3,137.5,R,ugm-3,2,R,ugm-3,18.6,R,ugm-3
11-01-1997,20:00,52,R,ugm-3 (GRAV EQ),48.8,R,ugm-3,63.0,R,ugm-3,137.5,R,ugm-3,2,R,ugm-3,16.0,R,ugm-3
11-01-1997,21:00,29,R,ugm-3 (GRAV EQ),20.0,R,ugm-3,57.3,R,ugm-3,87.9,R,ugm-3,2,R,ugm-3,10.6,R,ugm-3
11-01-1997,22:00,10,R,ugm-3 (GRAV EQ),6.3,R,ugm-3,43.9,R,ugm-3,53.5,R,ugm-3,4,R,ugm-3,13.3,R,ugm-3
11-01-1997,23:00,3,R,ugm-3 (GRAV EQ),2.5,R,ugm-3,38.2,R,ugm-3,42.0,R,ugm-3,4,R,ugm-3,13.3,R,ugm-3
11-01-1997,24:00,5,R,ugm-3 (GRAV EQ),2.5,R,ugm-3,36.3,R,ugm-3,40.1,R,ugm-3,6,R,ugm-3,10.6,R,ugm-3
12-01-1997,01:00,12,R,ugm-3 (GRAV EQ),2.5,R,ugm-3,32.5,R,ugm-3,36.3,R,ugm-3,6,R,ugm-3,26.6,R,ugm-3
12-01-1997,02:00,8,R,ugm-3 (GRAV EQ),1.3,R,ugm-3,32.5,R,ugm-3,34.4,R,ugm-3,8,R,ugm-3,2.7,R,ugm-3
12-01-1997,03:00,8,R,ugm-3 (GRAV EQ),3.8,R,ugm-3,32.5,R,ugm-3,38.2,R,ugm-3,4,R,ugm-3,2.7,R,ugm-3
12-01-1997,04:00,10,R,ugm-3 (GRAV EQ),1.3,R,ugm-3,26.7,R,ugm-3,28.7,R,ugm-3,10,R,ugm-3,2.7,R,ugm-3
12-01-1997,05:00,10,R,ugm-3 (GRAV EQ),1.3,R,ugm-3,24.8,R,ugm-3,26.7,R,ugm-3,8,R,ugm-3,2.7,R,ugm-3
12-01-1997,06:00,10,R,ugm-3 (GRAV EQ),0.0,R,ugm-3,22.9,R,ugm-3,22.9,R,ugm-3,10,R,ugm-3,0.0,R,ugm-3
12-01-1997,07:00,1,R,ugm-3 (GRAV EQ),0.0,R,ugm-3,21.0,R,ugm-3,21.0,R,ugm-3,8,R,ugm-3,0.0,R,ugm-3
12-01-1997,08:00,7,R,ugm-3 (GRAV EQ),1.3,R,ugm-3,26.7,R,ugm-3,28.7,R,ugm-3,6,R,ugm-3,2.7,R,ugm-3
12-01-1997,09:00,8,R,ugm-3 (GRAV EQ),3.8,R,ugm-3,28.7,R,ugm-3,34.4,R,ugm-3,4,R,ugm-3,5.3,R,ugm-3
12-01-1997,10:00,8,R,ugm-3 (GRAV EQ),6.3,R,ugm-3,22.9,R,ugm-3,32.5,R,ugm-3,8,R,ugm-3,2.7,R,ugm-3
12-01-1997,11:00,18,R,ugm-3 (GRAV EQ),6.3,R,ugm-3,22.9,R,ugm-3,32.5,R,ugm-3,14,R,ugm-3,2.7,R,ugm-3
12-01-1997,12:00,7,R,ugm-3 (GRAV EQ),3.8,R,ugm-3,21.0,R,ugm-3,26.7,R,ugm-3,24,R,ugm-3,2.7,R,ugm-3